Location: Cahas Mountain Overlook
(37.0833°N, 80.1000°W)
Time: 03:29:49
(UTC-05:00)

Explorer 11/Cluster Stage 4 - All Passes

Search period start: 15 February 2026 00:00
Search period end: 25 February 2026 00:00
Orbit: 463 x 1177 km, 28.8° (Epoch: 13 February)

Date Brightness Start Highest point End Pass type
(mag) Time Alt. Az. Time Alt. Az. Time Alt. Az.
15 Feb - 14:23:06 10° SSW 14:25:13 15° SSE 14:27:17 10° SE daylight
15 Feb - 16:09:03 10° SW 16:11:55 22° S 16:14:55 10° SE daylight
15 Feb - 17:56:02 10° SW 17:58:43 18° S 18:01:37 10° SE daylight
16 Feb - 13:58:52 10° SSW 14:01:09 15° SSE 14:03:21 10° SE daylight
16 Feb - 15:45:01 10° SW 15:47:53 22° S 15:50:47 10° SE daylight
16 Feb - 17:32:10 10° SW 17:34:38 17° S 17:37:15 10° SSE daylight
17 Feb - 13:34:33 10° SSW 13:37:04 16° SSE 13:39:27 10° SE daylight
17 Feb - 15:20:55 10° SW 15:23:49 22° S 15:26:41 10° SE daylight
17 Feb - 17:08:15 10° SW 17:10:33 16° SSW 17:12:57 10° SSE daylight
18 Feb - 13:10:10 10° SSW 13:12:58 17° S 13:15:34 10° SE daylight
18 Feb - 14:56:45 10° SW 14:59:45 22° S 15:02:38 10° SE daylight
18 Feb - 16:44:16 10° SW 16:46:28 15° SSW 16:48:42 10° SSE daylight
19 Feb - 12:45:42 10° SW 12:48:51 19° S 12:51:41 10° ESE daylight
19 Feb - 14:32:31 10° SW 14:35:41 23° S 14:38:37 10° SE daylight
19 Feb - 16:20:13 10° SW 16:22:22 15° SSW 16:24:32 10° SSE daylight
20 Feb - 10:37:02 10° SSE 10:37:43 10° SSE 10:38:23 10° SSE daylight
20 Feb - 12:21:12 10° SW 12:24:42 21° S 12:27:48 10° ESE daylight
20 Feb - 14:08:12 10° WSW 14:11:34 24° S 14:14:38 10° SE daylight
20 Feb - 15:56:05 10° SW 15:58:16 15° SSW 16:00:24 10° SSE daylight
21 Feb - 10:11:32 10° S 10:13:29 12° SSE 10:15:18 10° SE daylight
21 Feb - 11:56:38 10° SW 12:00:31 22° S 12:03:55 10° ESE daylight
21 Feb - 13:43:49 10° WSW 13:47:27 25° S 13:50:40 10° SE daylight
21 Feb - 15:31:52 10° SW 15:34:09 15° SSW 15:36:19 10° SSE daylight
22 Feb - 09:46:29 10° S 09:49:12 13° SSE 09:51:42 10° SE daylight
22 Feb - 11:32:01 10° SW 11:36:19 24° S 11:40:00 10° ESE daylight
22 Feb - 13:19:22 10° WSW 13:23:17 27° S 13:26:42 10° SE daylight
22 Feb - 15:07:33 10° SW 15:10:00 16° SSW 15:12:18 10° SSE daylight
23 Feb - 09:21:31 10° SSW 09:24:52 15° SSE 09:27:56 10° SE daylight
23 Feb - 11:07:22 10° SW 11:12:04 26° S 11:16:03 10° ESE daylight
23 Feb - 12:54:52 10° WSW 12:59:07 29° S 13:02:44 10° SE daylight
23 Feb - 14:43:11 10° WSW 14:45:51 16° SSW 14:48:18 10° SSE daylight
24 Feb - 08:56:35 10° SSW 09:00:31 16° SSE 09:04:04 10° ESE daylight
24 Feb - 10:42:39 10° SW 10:47:47 28° S 10:52:05 10° ESE daylight
24 Feb - 12:30:18 10° WSW 12:34:53 30° S 12:38:46 10° ESE daylight
24 Feb - 14:18:43 10° WSW 14:21:39 17° SSW 14:24:20 10° SSE daylight
